Lid_Strength_Index
2 1 -0 0 1 0 -1 0 0 -0 1 1 2 2 2 1 1 0 -0 -0 -0 -0 0 0 0 0 1 1 1 1 1 2 1 2 2 2 1 1 1 0 0 0 0
3 2 1 1 1 1 0 -0 0 0 1 1 1 1 1 1 1 0 0 -0 0 0 0 0 1 1 1 1 1 1 2 2 1 3 3 5 3 2 1 1 1 1 0
3 3 2 1 1 1 0 0 1 0 -0 0 1 1 1 1 1 1 1 0 0 0 0 0 0 1 1 1 1 1 2 3 2 1 3 6 6 4 2 2 1 1 2
3 2 1 0 1 -0 0 -1 -1 -0 -1 -0 1 2 2 3 2 1 1 1 0 0 0 0 0 1 1 1 1 1 1 2 3 2 2 2 3 6 6 3 2 1 1
3 3 2 2 1 1 -0 -1 -1 -1 -1 -1 0 1 2 2 1 1 1 1 1 0 0 0 0 1 1 1 1 1 1 1 2 2 3 3 3 3 4 6 4 2 1
3 2 2 2 1 0 1 1 0 0 -1 -0 0 1 2 2 2 2 2 2 1 1 1 0 1 1 1 1 1 1 1 1 2 2 2 3 4 4 4 5 4 4 3
3 3 3 2 2 1 0 1 1 1 1 0 1 1 1 1 2 2 2 2 2 2 1 1 1 1 1 1 1 1 1 1 2 2 2 2 2 2 3 3 4 5 3
3 3 3 2 2 1 1 0 0 1 1 1 1 1 1 1 1 1 1 2 1 1 1 0 1 2 2 2 0 1 1 1 1 2 2 2 2 1 2 3 4 5 4
3 3 3 2 1 1 1 0 1 1 0 1 1 1 1 1 1 1 1 1 1 1 1 1 1 2 3 1 1 1 2 1 1 1 1 2 1 1 1 1 2 4 6
4 4 3 2 2 1 0 -0 1 1 1 0 0 1 0 1 1 1 1 1 1 1 1 1 3 4 3 1 1 1 1 2 2 1 2 2 1 1 1 1 2 2 4
4 4 4 3 3 2 2 0 1 1 1 1 1 1 1 1 1 1 1 1 1 1 1 1 1 1 1 3 3 3 3 2 2 1 2 2 1 2 2 1 1 2 2
5 5 4 4 3 2 2 1 1 1 1 1 1 1 0 1 1 1 1 1 1 1 1 1 1 1 1 3 3 4 1 2 2 2 2 2 1 2 1 2 2 2 2
5 5 4 4 3 2 2 2 2 1 1 1 1 1 1 1 1 1 1 1 1 1 1 1 1 1 1 1 1 1 1 1 1 1 2 2 2 2 2 2 2 2 2
5 5 4 4 3 3 2 2 2 1 1 1 1 1 2 1 1 1 1 1 1 1 1 1 1 1 0 0 1 1 1 1 1 1 1 1 1 2 2 2 2 2 2
5 5 4 4 3 2 2 2 2 1 1 1 1 2 1 1 1 1 1 1 1 1 1 1 1 1 1 1 1 1 1 2 2 1 1 1 1 1 2 2 2 2 3
5 5 4 3 3 2 2 2 2 2 1 2 2 1 1 1 1 1 1 1 1 1 1 1 1 1 1 5 5 2 1 1 2 2 1 1 1 2 3 3 3 2 3
5 3 3 3 3 2 2 2 2 1 2 2 2 1 1 1 1 1 1 2 2 1 2 2 2 2 1 4 6 6 1 2 2 2 2 2 1 1 1 3 3 3 3
4 3 3 3 2 2 2 1 1 2 2 2 3 2 1 2 1 1 2 2 2 2 2 2 1 1 1 5 7 6 2 1 1 1 1 2 1 1 1 1 1 1 1
3 3 2 2 2 2 2 2 2 3 3 3 3 3 3 3 3 2 2 2 2 2 2 2 2 2 1 4 5 5 1 2 2 1 1 1 1 4 7 2 2 2 2
2 3 3 2 2 2 2 2 4 4 4 4 4 3 4 4 4 4 4 2 2 2 2 2 1 2 2 4 6 4 1 2 2 1 1 6 2 6 8 2 2 3 2
3 2 2 3 3 3 3 4 4 4 4 4 4 4 4 4 4 4 4 4 2 2 2 2 2 1 2 2 6 8 2 2 2 2 2 1 8 8 9 7 2 2 2
3 3 4 4 4 3 4 4 4 3 4 4 5 4 5 5 5 5 5 4 4 4 3 2 2 2 1 4 4 8 8 3 2 2 2 1 7 9 10 9 6 8 6
4 4 6 5 5 4 5 5 5 5 5 5 5 5 5 6 5 6 6 5 5 6 5 4 4 3 2 1 4 6 8 8 3 1 2 7 9 10 9 9 8 9 4
6 6 7 7 7 6 6 7 7 6 6 7 7 6 6 6 6 7 6 6 6 6 6 5 5 4 2 2 1 1 2 6 5 4 2 3 5 6 4 5 7 4 3
7 8 9 9 9 9 9 8 8 8 8 8 8 8 7 7 7 6 6 6 6 6 6 6 5 5 4 3 6 5 2 5 4 2 2 2 2 2 2 2 2 3 3
9 10 10 11 10 10 10 9 10 10 10 10 11 11 11 10 9 9 9 9 9 9 9 9 7 5 7 8 7 7 8 9 9 5 3 3 3 3 3 3 2 3 3